Aeroporto :
LOGIN :

Iscrizione | Disclaimer

   EN    FR    IT 

 










Sommario :    VFR   VFR Marginale   IFR   IFR Intensivo   IFR Molto Intensivo
Visibilità : 
Base nubi : 
>= 8 km
>= 3000ft
5 / 8 km
1000 / 3000 ft
1500m / 5 km
500 / 1000 ft
800 / 1500m
200 / 500 ft
< 800m
< 200 ft
Simboli :   Temporali  Nebbia  Neve Forte  Precipitazioni Forti  Vento > 20 kt
SIGMETs :   Varie  Temporali  Ghiacco  Turbolenza  Onda orograficha  Ceneri Vulcaniche






- Altitudine del aeroporto : 325 ft
- Codice IATA : POX


LFPT - Pontoise

ULTIMO METAR :
  • 271200Z AUTO 27007KT 240V300 9999 -RA BKN045 OVC054 15/13 Q1016

METARs OBSOLETI :
  • 271130Z AUTO 28007KT 250V310 9999 BKN040/// OVC047/// ///CB 14/13 Q1015
  • 271100Z AUTO 28008KT 9999 -RA FEW010/// SCT015/// BKN032/// ///CB 14/13 Q1015
  • 271030Z AUTO 20015KT 5000 -RA BR BKN014/// BKN019/// OVC024/// ///CB 17/16 Q1013
  • 271000Z AUTO 19011KT 9999 -RADZ SCT016/// BKN021/// BKN042/// ///TCU 17/16 Q1013
  • 270930Z AUTO 19007KT 160V220 9999 FEW009 OVC058 17/16 Q1013

TAF N/A
ATIS : +33 1 30 30 52 08



MetMap, La meteo Aeronautica in un colpo d'occhio ! - Copyright ORBIFLY Dicembre 2007 - Disclaimer

ORBIFLY MET'MAP TEAM :

Programmazione e sviluppo : Alexandra Zaïnal
Concezione : Baudouin d'Aumeries
Aiuto per la programmazione : Marc-Olivier Méhu
Supporto tecnico e logistico : Manuel Goepfert
Aiuto per la traduzione : Arnaldo La Scala

Contatto : metmap@orbifly.com




FONTI E CREDITI :

   NOAA